Regional Weather Roundup
Issued by NWS Charleston, SC

Current Version | Previous Version | Text Only | Print | Product List | Glossary Off
Versions: 1 2 3 4 5 6 7 8 9 10 11 12 13 14 15 16 17 18 19 20 21 22 23 24 25 26 27 28 29 30 31 32 33 34 35 36 37 38 39 40 41 42 43 44 45 46 47 48 49 50

000
ASUS42 KCHS 310128
RWRCHS

REGIONAL WEATHER ROUNDUP
NATIONAL WEATHER SERVICE CHARLESTON SC
900 PM EDT SAT JUL 30 2016

NOTE: "FAIR" INDICATES FEW OR NO CLOUDS BELOW 12,000 FEET WITH NO
SIGNIFICANT WEATHER AND/OR OBSTRUCTIONS TO VISIBILITY.

NOT ALL STATIONS ARE QUALITY CONTROLLED. USE DATA WITH CAUTION...
ESPECIALLY DEWPOINT OBSERVATIONS.

SCZ027-030-031-034>040-042>050-310200-
...SOUTHEAST SOUTH CAROLINA...

CITY           SKY/WX    TMP DP  RH WIND       PRES   REMARKS
N CHARLESTON   PTCLDY    87  74  64 SW14      29.99R HX  95
WATERFRONT PRK   N/A     87  79  76 SW7       29.96R HX 101
MOUNT PLEASANT FAIR      86  77  74 S7        30.00R HX  97
JOHNS ISLAND   FAIR      86  77  74 S8        30.00R HX  97
PINOPOLIS        N/A     90  73  58 VRB3      29.89R HX  98
MONCKS CORNER  FAIR      84  70  61 S9        30.00R
SUMMERVILLE    NOT AVBL
BEAUFORT MCAS  CLOUDY    85  70  60 NW9G20    30.02R THUNDER
BEAUFORT ARPT  FAIR      86  77  74 W8        30.02R HX  97
HILTON HEAD IS CLEAR     86  77  74 SW8       30.02R HX  97
WALTERBORO     CLOUDY    81  72  74 S13       30.01R
ALLENDALE      FAIR      82  72  69 CALM      30.01R

...SOUTHERN MIDLANDS AND PEE DEE...

CITY           SKY/WX    TMP DP  RH WIND       PRES   REMARKS
GEORGETOWN     FAIR      82  75  78 SW6       30.01R
KINGSTREE      FAIR      81  70  69 CALM      29.98R THUNDER
ORANGEBURG     CLEAR     85  72  65 CALM      29.98R HX  91
BARNWELL       NOT AVBL
AIKEN          FAIR      79  68  69 CALM      30.03S
MANNING        FAIR      86  73  66 CALM      29.99R HX  93
COLUMBIA       MOCLDY    89  69  51 W10       29.95F HX  93
SUMTER         CLEAR     85  71  63 SW6       29.95R HX  90
FLORENCE       CLOUDY    78  74  87 CALM      29.97S
MYRTLE BEACH   PTCLDY    86  72  62 SW14      29.99R HX  92
N MYRTLE BEACH CLEAR     86  77  74 SW17      29.96R HX  97

$$

GAZ063-065-086>088-099>101-113>116-118-119-134>141-150-310200-
...SOUTHEAST GEORGIA...

CITY           SKY/WX    TMP DP  RH WIND       PRES   REMARKS
SAVANNAH ARPT  MOCLDY    87  74  64 S10       30.00R THUNDER HX  95
HUNTER AAF     CLEAR     86  78  76 S9        29.98R HX  98
FORT STEWART   PTCLDY    87  73  63 CALM      29.97R HX  95
STATESBORO     CLOUDY    82  78  88 SE3       30.00R HX  90
SYLVANIA       NOT AVBL
CLAXTON        CLOUDY    88  74  63 CALM      29.99R HX  96

...CSRA...CENTRAL AND FAR SOUTHEAST GEORGIA...

CITY           SKY/WX    TMP DP  RH WIND       PRES   REMARKS
THOMSON        NOT AVBL
AUGUSTA-BUSH   CLOUDY    74  73  97 E3        29.97S
AUGUSTA-DANIEL CLOUDY    80  72  76 N3        29.99R
SWAINSBORO     FAIR      82  72  69 CALM      30.00R
VIDALIA        CLOUDY    88  70  55 CALM      29.99S HX  92
EASTMAN        FAIR      83  66  56 CALM      30.00S
HAZLEHURST     FAIR      89  73  58 CALM      29.98R HX  97
ALMA           CLEAR     84  71  65 CALM      29.98R
WAYCROSS       CLEAR     87  78  72 S8        30.01R HX 100
JESUP          FAIR      88  79  74 S5        30.00R HX 102
BAXLEY         FAIR      88  79  74 CALM      29.99R HX 102
BRUNSWICK      CLEAR     88  79  74 S8        30.02R HX 102
SAINT SIMONS   CLEAR     86  76  71 S10       30.00R HX  96

$$

SCZ027-028-034-036>038-045-046-048>050-GAZ119-141-310200-
...LAKE AND SUPPLEMENTAL COASTAL OBSERVATIONS...

STATION/POSITION TIME  TEMP    WIND        PRES    WAVE   SWELL
                       AIR SEA DIR/SP/G            HT/PER HT/PER/DIR
                 (UTC) (F)     (DEG/KT/KT) (MB)    (FT/S) (FT/S/D)
WINYAH BAY       0045   86     210/  8     1014.0S
LAKE MURRAY      0000   90     240/  6/  8 1014.6R
ACE BASIN NERRS  0000   87        CALM     1015.0S
FORT PULASKI     0100      88  190/  6/ 10 1016.5
SAPELO ISLAND    0100   85     180/  9     1016.0S

$$

ANZ835-935-AMZ111-154-330-350-352-354-370-450-454-472-310200-
...C-MAN AND BUOY OBSERVATIONS...

STATION/POSITION TIME  TEMP    WIND        PRES    WAVE   SWELL
                       AIR SEA DIR/SP/G            HT/PER HT/PER/DIR
                 (UTC) (F)     (DEG/KT/KT) (MB)    (FT/S) (FT/S/D)
BUOY 41004       0050   86 86  200/ 16/ 17 1015.1R   2/ 3   2/150/ 8
BUOY 41008       0050   86 87  160/ 16/ 19 1015.4R   2/ 4
FOLLY BEACH CMAN 0100   87     210/ 17/ 20 1016.1R
CAPERS NEARSHORE 0008   86 86  210/ 16/ 21 1014.7R
FRIPP NEARSHORE  0108   87 87  210/ 17/ 19 1015.2R


STATION/POSITION TIME  TEMP    WIND        PRES    WAVE   SWELL
                       AIR SEA DIR/SP/G            HT/PER HT/PER/DIR
                 (UTC) (F)     (DEG/KT/KT) (MB)    (FT/S) (FT/S/D)
5E ST. MARYS GA  0101      86                N/A     2/ 3
FRYING PAN BUOY  0100   86 85  210/ 14/ 16 1015.0R
BUOY 41025       0050   85 85  190/ 16/ 17 1014.8F   3/ 6   2/190/10
CAPE LOOKOUT NC  0100   84     210/  8/ 11 1014.7R
BUOY 41002       0050   85 85  170/ 12/ 14 1018.3R   2/ 5   2/110/ 8
BUOY 41010       0020   84 88  150/ 10/ 14 1017.8R
ST AUGUSTINE FL  0100   83 86  190/  6/  8 1018.2R


$$




USA.gov is the U.S. government's official web portal to all federal, state and local government web resources and services.